Погода в Маккае

Австралия     21°07′30″S   149°10′26″E
темп.,
°C
ветер,
м/с
пор.,
м/с
влажн.,
%
обл.,
%
осадки,
мм/ч
давл.,
гПа
погр.,
м
14 мая, пт
пт1401:00+22ююз33830 0.1 1012125
04:00+22ю57790 0.3 1012279
07:00+21ююв68570 0.0 1014369
10:00+23ююв78490 0.0 1015564
13:00+23юв77520 0.0 1013484
16:00+23вюв56510 0.0 1012499
19:00+23ююв33500 0.0 1014288
22:00+20юз33600 0.0 1015149
15 мая, сб
сб1501:00+19ююз34550 0.0 1014163
04:00+19ю34472 0.0 1014180
07:00+18ю454990 0.0 1016263
10:00+21ююв56510 0.0 1017553
13:00+22юв77540 0.0 1014581
16:00+22вюв56490 0.0 1013594
19:00+22ююв34480 0.0 1015375
22:00+19юз33600 0.0 1016175
16 мая, вс
вс1601:00+19ю57550 0.0 1016380
04:00+18ю811540 0.0 1016596
07:00+17ю811590 0.0 1018577
10:00+19ююв89500 0.0 1019827
13:00+21юв88480 0.0 1017852
16:00+21юв78480 0.0 1016668
19:00+20юв57490 0.0 1018677
22:00+20ююв46540 0.0 1019709
17 мая, пн
пн1701:00+18ю57610 0.0 1019504
04:00+17ююз56652 0.0 1018227
07:00+18ююв697498 0.1 1020572
10:00+20ююв9107499 0.3 1021798
13:00+20ююв101172100 0.1 1019712
16:00+21ююв71067100 0.1 10181177
19:00+22юв9117160 0.4 1020862
22:00+23юв1011686 0.4 10201084
18 мая, вт
вт1801:00+22юв911660 0.2 10191286
04:00+22ююв912682 0.3 10191318
07:00+20ююв912792 0.1 1021910
10:00+22ююв10127133 0.4 10221113
13:00+23юв11126680 0.3 10201415
16:00+24юв11116299 0.6 10191705
19:00+24юв10126398 0.0 10211750
22:00+24юв10115796 0.0 10211832